Location: Acton
(51.4942°N, 0.2232°W)
Time: 13:05:38
(UTC+00:00)

Meteor 1-15 Rocket - Pass Details

Date: 18 September 2020
Orbit: 840 x 906 km, 81.2° (Epoch: 21 October)

Event Time Altitude Azimuth Distance (km) Brightness Sun altitude
Rises 19:51:44 0° 176° (S) 3,397 7.1 -16.5°
Reaches altitude 10° 19:54:09 10° 173° (S) 2,473 6.3 -16.9°
Maximum altitude 19:59:37 57° 96° (E) 1,011 4.3 -17.6°
Drops below altitude 10° 20:05:13 10° 19° (NNE) 2,530 6.8 -18.4°
Sets 20:07:43 0° 16° (NNE) 3,483 7.6 -18.8°
